Time,TemperatureF,DewpointF,PressureIn,WindDirection,WindDirectionDegrees,WindSpeedMPH,WindSpeedGustMPH,Humidity,HourlyPrecipIn,Conditions,Clouds,dailyrainin,SoftwareType,DateUTC
2013-10-14 00:01:00,62.1,47.1,30.09,SE,146,2.0,-999.0,58,0.00,,,0.00,WeatherSnoop3.0,2013-10-14 05:01:00,
2013-10-14 00:06:00,62.1,47.6,30.09,ESE,110,3.0,-999.0,59,0.00,,,0.00,WeatherSnoop3.0,2013-10-14 05:06:00,
2013-10-14 00:11:00,62.1,47.6,30.09,SE,145,4.0,-999.0,59,0.00,,,0.00,WeatherSnoop3.0,2013-10-14 05:11:00,
2013-10-14 00:16:00,62.0,47.5,30.09,SE,134,8.0,-999.0,59,0.00,,,0.00,WeatherSnoop3.0,2013-10-14 05:16:00,
2013-10-14 00:21:00,62.0,47.5,30.09,ESE,110,1.0,-999.0,59,0.00,,,0.00,WeatherSnoop3.0,2013-10-14 05:21:00,
2013-10-14 00:26:00,62.0,48.0,30.09,East,85,2.0,-999.0,60,0.00,,,0.00,WeatherSnoop3.0,2013-10-14 05:26:00,
2013-10-14 00:31:00,62.0,48.0,30.09,East,101,3.0,-999.0,60,0.00,,,0.00,WeatherSnoop3.0,2013-10-14 05:31:00,
2013-10-14 00:36:00,62.0,48.0,30.09,SE,144,5.0,-999.0,60,0.00,,,0.00,WeatherSnoop3.0,2013-10-14 05:36:00,
2013-10-14 00:41:00,61.9,48.3,30.08,ESE,102,2.0,-999.0,61,0.00,,,0.00,WeatherSnoop3.0,2013-10-14 05:41:00,
2013-10-14 00:46:00,61.8,48.2,30.08,East,95,2.0,-999.0,61,0.00,,,0.00,WeatherSnoop3.0,2013-10-14 05:46:00,
2013-10-14 00:51:00,61.8,48.2,30.08,ESE,105,1.0,-999.0,61,0.00,,,0.00,WeatherSnoop3.0,2013-10-14 05:51:00,
2013-10-14 00:56:00,61.8,48.6,30.08,SE,125,1.0,-999.0,62,0.00,,,0.00,WeatherSnoop3.0,2013-10-14 05:56:00,
2013-10-14 01:01:00,61.7,48.5,30.08,SSE,162,2.0,-999.0,62,0.00,,,0.00,WeatherSnoop3.0,2013-10-14 06:01:00,
2013-10-14 01:06:00,61.7,48.5,30.08,SE,138,5.0,-999.0,62,0.00,,,0.00,WeatherSnoop3.0,2013-10-14 06:06:00,
2013-10-14 01:11:00,61.7,49.0,30.08,ESE,110,1.0,-999.0,63,0.00,,,0.00,WeatherSnoop3.0,2013-10-14 06:11:00,
2013-10-14 01:16:00,61.6,48.9,30.08,SE,124,2.0,-999.0,63,0.00,,,0.00,WeatherSnoop3.0,2013-10-14 06:16:00,
2013-10-14 01:21:00,61.6,48.9,30.08,East,91,3.0,-999.0,63,0.00,,,0.00,WeatherSnoop3.0,2013-10-14 06:21:00,
2013-10-14 01:26:00,61.7,49.0,30.08,ESE,122,3.0,-999.0,63,0.00,,,0.00,WeatherSnoop3.0,2013-10-14 06:26:00,
2013-10-14 01:31:00,61.6,48.9,30.08,East,86,2.0,-999.0,63,0.00,,,0.00,WeatherSnoop3.0,2013-10-14 06:31:00,
2013-10-14 01:36:00,61.6,48.9,30.08,ESE,113,2.0,-999.0,63,0.00,,,0.00,WeatherSnoop3.0,2013-10-14 06:36:00,
2013-10-14 01:41:00,61.5,49.2,30.08,ESE,117,1.0,-999.0,64,0.00,,,0.00,WeatherSnoop3.0,2013-10-14 06:41:00,
2013-10-14 01:46:00,61.4,49.1,30.08,SW,222,0.0,-999.0,64,0.00,,,0.00,WeatherSnoop3.0,2013-10-14 06:46:00,
2013-10-14 01:51:00,61.3,49.4,30.08,SE,132,0.0,-999.0,65,0.00,,,0.00,WeatherSnoop3.0,2013-10-14 06:51:00,
2013-10-14 01:56:00,61.2,49.3,30.08,East,101,2.0,-999.0,65,0.00,,,0.00,WeatherSnoop3.0,2013-10-14 06:56:00,
2013-10-14 02:01:00,61.1,49.2,30.08,SSE,155,2.0,-999.0,65,0.00,,,0.00,WeatherSnoop3.0,2013-10-14 07:01:00,
2013-10-14 02:06:00,61.1,49.2,30.07,East,98,2.0,-999.0,65,0.00,,,0.00,WeatherSnoop3.0,2013-10-14 07:06:00,
2013-10-14 02:11:00,61.1,49.2,30.07,East,92,2.0,-999.0,65,0.00,,,0.00,WeatherSnoop3.0,2013-10-14 07:11:00,
2013-10-14 02:16:00,61.0,49.1,30.07,SSE,155,6.0,-999.0,65,0.00,,,0.00,WeatherSnoop3.0,2013-10-14 07:16:00,
2013-10-14 02:21:00,61.0,49.1,30.06,East,89,1.0,-999.0,65,0.00,,,0.00,WeatherSnoop3.0,2013-10-14 07:21:00,
2013-10-14 02:26:00,60.9,49.5,30.07,East,96,1.0,-999.0,66,0.00,,,0.00,WeatherSnoop3.0,2013-10-14 07:26:00,
2013-10-14 02:31:00,60.9,49.5,30.07,ESE,110,1.0,-999.0,66,0.00,,,0.00,WeatherSnoop3.0,2013-10-14 07:31:00,
2013-10-14 02:36:00,60.8,49.4,30.06,SE,128,0.0,-999.0,66,0.00,,,0.00,WeatherSnoop3.0,2013-10-14 07:36:00,
2013-10-14 02:41:00,60.8,49.8,30.06,East,92,1.0,-999.0,67,0.00,,,0.00,WeatherSnoop3.0,2013-10-14 07:41:00,
2013-10-14 02:46:00,60.7,49.7,30.06,East,95,1.0,-999.0,67,0.00,,,0.00,WeatherSnoop3.0,2013-10-14 07:46:00,
2013-10-14 02:51:00,60.7,49.7,30.06,SE,129,2.0,-999.0,67,0.00,,,0.00,WeatherSnoop3.0,2013-10-14 07:51:00,
2013-10-14 02:56:00,60.7,49.7,30.06,SE,143,2.0,-999.0,67,0.00,,,0.00,WeatherSnoop3.0,2013-10-14 07:56:00,
2013-10-14 03:01:00,60.7,49.7,30.05,SE,131,3.0,-999.0,67,0.00,,,0.00,WeatherSnoop3.0,2013-10-14 08:01:00,
2013-10-14 03:06:00,60.7,49.7,30.05,ESE,121,2.0,-999.0,67,0.00,,,0.00,WeatherSnoop3.0,2013-10-14 08:06:00,
2013-10-14 03:11:00,60.7,49.7,30.05,ESE,104,2.0,-999.0,67,0.00,,,0.00,WeatherSnoop3.0,2013-10-14 08:11:00,
2013-10-14 03:16:00,60.8,49.8,30.04,East,82,2.0,-999.0,67,0.00,,,0.00,WeatherSnoop3.0,2013-10-14 08:16:00,
2013-10-14 03:21:00,60.8,49.8,30.04,East,89,1.0,-999.0,67,0.00,,,0.00,WeatherSnoop3.0,2013-10-14 08:21:00,
2013-10-14 03:26:00,60.8,49.8,30.03,East,94,3.0,-999.0,67,0.00,,,0.00,WeatherSnoop3.0,2013-10-14 08:26:00,
2013-10-14 03:31:00,60.7,50.1,30.03,SE,130,7.0,-999.0,68,0.00,,,0.00,WeatherSnoop3.0,2013-10-14 08:31:00,
2013-10-14 03:36:00,60.7,50.1,30.03,SE,142,4.0,-999.0,68,0.00,,,0.00,WeatherSnoop3.0,2013-10-14 08:36:00,
2013-10-14 03:41:00,60.7,50.1,30.03,SSE,153,6.0,-999.0,68,0.00,,,0.00,WeatherSnoop3.0,2013-10-14 08:41:00,
2013-10-14 03:46:00,60.7,50.1,30.03,East,92,0.0,-999.0,68,0.00,,,0.00,WeatherSnoop3.0,2013-10-14 08:46:00,
2013-10-14 03:51:00,60.7,50.5,30.03,East,85,3.0,-999.0,69,0.00,,,0.00,WeatherSnoop3.0,2013-10-14 08:51:00,
2013-10-14 03:56:00,60.7,50.5,30.02,East,89,3.0,-999.0,69,0.00,,,0.00,WeatherSnoop3.0,2013-10-14 08:56:00,
2013-10-14 04:01:00,60.8,51.0,30.02,SE,134,4.0,-999.0,70,0.00,,,0.00,WeatherSnoop3.0,2013-10-14 09:01:00,
2013-10-14 04:05:00,60.8,51.0,30.02,SE,145,6.0,-999.0,70,0.00,,,0.00,WeatherSnoop3.0,2013-10-14 09:05:00,
2013-10-14 04:10:00,60.8,51.0,30.02,SSE,147,4.0,-999.0,70,0.00,,,0.00,WeatherSnoop3.0,2013-10-14 09:10:00,
2013-10-14 04:16:00,60.9,51.4,30.02,SSE,158,4.0,-999.0,71,0.00,,,0.00,WeatherSnoop3.0,2013-10-14 09:16:00,
2013-10-14 04:20:00,60.9,51.4,30.02,SSE,155,2.0,-999.0,71,0.00,,,0.00,WeatherSnoop3.0,2013-10-14 09:20:00,
2013-10-14 04:25:00,60.8,51.3,30.01,ESE,103,3.0,-999.0,71,0.00,,,0.00,WeatherSnoop3.0,2013-10-14 09:25:00,
2013-10-14 04:31:00,60.8,51.3,30.01,SE,125,2.0,-999.0,71,0.00,,,0.00,WeatherSnoop3.0,2013-10-14 09:31:00,
2013-10-14 04:35:00,60.8,51.7,30.01,ESE,105,1.0,-999.0,72,0.00,,,0.00,WeatherSnoop3.0,2013-10-14 09:35:00,
2013-10-14 04:40:00,60.8,52.1,30.02,SE,145,4.0,-999.0,73,0.00,,,0.00,WeatherSnoop3.0,2013-10-14 09:40:00,
2013-10-14 04:45:00,60.9,52.2,30.02,SSE,153,4.0,-999.0,73,0.00,,,0.00,WeatherSnoop3.0,2013-10-14 09:45:00,
2013-10-14 04:50:00,60.9,52.2,30.01,ESE,110,2.0,-999.0,73,0.00,,,0.00,WeatherSnoop3.0,2013-10-14 09:50:00,
2013-10-14 04:55:00,61.0,52.3,30.01,East,81,2.0,-999.0,73,0.00,,,0.00,WeatherSnoop3.0,2013-10-14 09:55:00,
2013-10-14 05:00:00,61.0,52.7,30.00,SE,133,3.0,-999.0,74,0.00,,,0.00,WeatherSnoop3.0,2013-10-14 10:00:00,
2013-10-14 05:05:00,61.0,52.7,30.01,SE,124,1.0,-999.0,74,0.00,,,0.00,WeatherSnoop3.0,2013-10-14 10:05:00,
2013-10-14 05:10:00,61.0,53.0,30.00,SSE,149,3.0,-999.0,75,0.00,,,0.00,WeatherSnoop3.0,2013-10-14 10:10:00,
2013-10-14 05:15:00,61.1,53.1,30.00,SE,134,5.0,-999.0,75,0.00,,,0.00,WeatherSnoop3.0,2013-10-14 10:15:00,
2013-10-14 05:20:00,61.3,53.3,30.00,SSE,149,3.0,-999.0,75,0.00,,,0.00,WeatherSnoop3.0,2013-10-14 10:20:00,
2013-10-14 05:25:00,61.4,53.8,30.00,ESE,105,3.0,-999.0,76,0.00,,,0.00,WeatherSnoop3.0,2013-10-14 10:25:00,
2013-10-14 05:30:00,61.5,53.9,30.00,ESE,121,4.0,-999.0,76,0.00,,,0.00,WeatherSnoop3.0,2013-10-14 10:30:00,
2013-10-14 05:35:00,61.5,53.9,30.00,SE,142,4.0,-999.0,76,0.00,,,0.00,WeatherSnoop3.0,2013-10-14 10:35:00,
2013-10-14 05:40:00,61.6,54.0,30.00,East,98,4.0,-999.0,76,0.00,,,0.00,WeatherSnoop3.0,2013-10-14 10:40:00,
2013-10-14 05:45:00,61.6,54.3,30.00,SSE,153,7.0,-999.0,77,0.00,,,0.00,WeatherSnoop3.0,2013-10-14 10:45:00,
2013-10-14 05:50:00,61.7,54.4,30.00,ESE,122,4.0,-999.0,77,0.00,,,0.00,WeatherSnoop3.0,2013-10-14 10:50:00,
2013-10-14 05:55:00,61.7,54.8,30.00,SE,139,6.0,-999.0,78,0.00,,,0.00,WeatherSnoop3.0,2013-10-14 10:55:00,
2013-10-14 06:00:00,61.8,54.9,29.99,ESE,122,4.0,-999.0,78,0.00,,,0.00,WeatherSnoop3.0,2013-10-14 11:00:00,
2013-10-14 06:05:00,62.0,55.1,29.99,SE,138,7.0,-999.0,78,0.00,,,0.00,WeatherSnoop3.0,2013-10-14 11:05:00,
2013-10-14 06:10:00,62.1,55.5,29.99,South,172,4.0,-999.0,79,0.00,,,0.00,WeatherSnoop3.0,2013-10-14 11:10:00,
2013-10-14 06:15:00,62.1,55.2,29.99,SE,131,4.0,-999.0,78,0.00,,,0.00,WeatherSnoop3.0,2013-10-14 11:15:00,
2013-10-14 06:20:00,62.1,55.5,29.99,SSE,152,3.0,-999.0,79,0.00,,,0.00,WeatherSnoop3.0,2013-10-14 11:20:00,
2013-10-14 06:25:00,62.1,55.5,29.99,SE,134,5.0,-999.0,79,0.00,,,0.00,WeatherSnoop3.0,2013-10-14 11:25:00,
2013-10-14 06:30:00,62.1,55.5,29.99,SE,139,3.0,-999.0,79,0.00,,,0.00,WeatherSnoop3.0,2013-10-14 11:30:00,
2013-10-14 06:35:00,62.1,55.9,29.99,SE,130,1.0,-999.0,80,0.00,,,0.00,WeatherSnoop3.0,2013-10-14 11:35:00,
2013-10-14 06:40:00,62.0,55.8,29.99,SSE,159,7.0,-999.0,80,0.00,,,0.00,WeatherSnoop3.0,2013-10-14 11:40:00,
2013-10-14 06:45:00,62.0,55.8,29.98,SSE,157,4.0,-999.0,80,0.00,,,0.00,WeatherSnoop3.0,2013-10-14 11:45:00,
2013-10-14 06:50:00,61.9,55.7,29.98,SSE,156,8.0,-999.0,80,0.00,,,0.00,WeatherSnoop3.0,2013-10-14 11:50:00,
2013-10-14 06:55:00,61.8,55.6,29.98,ESE,103,5.0,-999.0,80,0.00,,,0.00,WeatherSnoop3.0,2013-10-14 11:55:00,
2013-10-14 07:00:00,61.8,55.9,29.98,SE,143,3.0,-999.0,81,0.00,,,0.00,WeatherSnoop3.0,2013-10-14 12:00:00,
2013-10-14 07:05:00,61.8,55.9,29.98,SE,138,2.0,-999.0,81,0.00,,,0.00,WeatherSnoop3.0,2013-10-14 12:05:00,
2013-10-14 07:10:00,61.8,55.9,29.97,ESE,108,2.0,-999.0,81,0.00,,,0.00,WeatherSnoop3.0,2013-10-14 12:10:00,
2013-10-14 07:15:00,61.8,55.9,29.97,ESE,117,5.0,-999.0,81,0.00,,,0.00,WeatherSnoop3.0,2013-10-14 12:15:00,
2013-10-14 07:20:00,61.9,56.3,29.97,East,95,3.0,-999.0,82,0.00,,,0.00,WeatherSnoop3.0,2013-10-14 12:20:00,
2013-10-14 07:25:00,61.8,56.2,29.97,ESE,119,4.0,-999.0,82,0.00,,,0.00,WeatherSnoop3.0,2013-10-14 12:25:00,
2013-10-14 07:30:00,61.9,56.3,29.97,ESE,113,6.0,-999.0,82,0.00,,,0.00,WeatherSnoop3.0,2013-10-14 12:30:00,
2013-10-14 07:35:00,62.0,56.4,29.97,SE,146,5.0,-999.0,82,0.00,,,0.00,WeatherSnoop3.0,2013-10-14 12:35:00,
2013-10-14 07:40:00,62.1,56.5,29.97,SE,140,2.0,-999.0,82,0.00,,,0.00,WeatherSnoop3.0,2013-10-14 12:40:00,
2013-10-14 07:45:00,62.1,56.2,29.96,SE,142,3.0,-999.0,81,0.00,,,0.00,WeatherSnoop3.0,2013-10-14 12:45:00,
2013-10-14 07:50:00,62.1,56.2,29.96,SE,134,8.0,-999.0,81,0.00,,,0.00,WeatherSnoop3.0,2013-10-14 12:50:00,
2013-10-14 07:55:00,62.0,56.1,29.95,SE,139,5.0,-999.0,81,0.00,,,0.00,WeatherSnoop3.0,2013-10-14 12:55:00,
2013-10-14 08:00:00,62.0,56.1,29.95,East,97,5.0,-999.0,81,0.00,,,0.00,WeatherSnoop3.0,2013-10-14 13:00:00,
2013-10-14 08:05:00,62.0,55.8,29.95,East,95,5.0,-999.0,80,0.00,,,0.00,WeatherSnoop3.0,2013-10-14 13:05:00,
2013-10-14 08:10:00,62.0,55.8,29.95,SE,146,7.0,-999.0,80,0.00,,,0.00,WeatherSnoop3.0,2013-10-14 13:10:00,
2013-10-14 08:15:00,62.0,55.8,29.95,ESE,119,4.0,-999.0,80,0.00,,,0.00,WeatherSnoop3.0,2013-10-14 13:15:00,
2013-10-14 08:20:00,61.9,56.0,29.95,ESE,103,5.0,-999.0,81,0.00,,,0.00,WeatherSnoop3.0,2013-10-14 13:20:00,
2013-10-14 08:25:00,62.0,55.8,29.95,SSE,151,3.0,-999.0,80,0.00,,,0.00,WeatherSnoop3.0,2013-10-14 13:25:00,
2013-10-14 08:30:00,62.0,56.1,29.95,ESE,103,6.0,-999.0,81,0.00,,,0.00,WeatherSnoop3.0,2013-10-14 13:30:00,
2013-10-14 08:35:00,61.9,55.7,29.95,East,92,5.0,-999.0,80,0.00,,,0.00,WeatherSnoop3.0,2013-10-14 13:35:00,
2013-10-14 08:40:00,61.9,56.0,29.95,SE,133,7.0,-999.0,81,0.00,,,0.00,WeatherSnoop3.0,2013-10-14 13:40:00,
2013-10-14 08:45:00,61.9,56.0,29.95,ESE,103,3.0,-999.0,81,0.00,,,0.00,WeatherSnoop3.0,2013-10-14 13:45:00,
2013-10-14 08:50:00,61.8,55.9,29.95,ESE,115,6.0,-999.0,81,0.00,,,0.00,WeatherSnoop3.0,2013-10-14 13:50:00,
2013-10-14 08:55:00,61.8,55.9,29.94,SSE,149,3.0,-999.0,81,0.00,,,0.00,WeatherSnoop3.0,2013-10-14 13:55:00,
2013-10-14 09:00:00,61.8,55.9,29.94,SSE,158,5.0,-999.0,81,0.00,,,0.00,WeatherSnoop3.0,2013-10-14 14:00:00,
2013-10-14 09:05:00,61.8,55.9,29.94,SE,145,10.0,-999.0,81,0.00,,,0.00,WeatherSnoop3.0,2013-10-14 14:05:00,
2013-10-14 09:10:00,61.8,55.9,29.93,ESE,122,5.0,-999.0,81,0.00,,,0.00,WeatherSnoop3.0,2013-10-14 14:10:00,
2013-10-14 09:15:00,61.7,56.5,29.93,SE,125,5.0,-999.0,83,0.00,,,0.00,WeatherSnoop3.0,2013-10-14 14:15:00,
2013-10-14 09:20:00,61.2,56.7,29.93,ESE,117,5.0,-999.0,85,0.00,,,0.00,WeatherSnoop3.0,2013-10-14 14:20:00,
2013-10-14 09:25:00,60.7,56.8,29.93,SE,134,7.0,-999.0,87,0.00,,,0.00,WeatherSnoop3.0,2013-10-14 14:25:00,
2013-10-14 09:30:00,60.5,56.6,29.93,ESE,115,4.0,-999.0,87,0.00,,,0.00,WeatherSnoop3.0,2013-10-14 14:30:00,
2013-10-14 09:35:00,60.6,56.4,29.93,ESE,119,8.0,-999.0,86,0.00,,,0.00,WeatherSnoop3.0,2013-10-14 14:35:00,
2013-10-14 09:40:00,61.0,56.5,29.93,SSE,166,4.0,-999.0,85,0.00,,,0.00,WeatherSnoop3.0,2013-10-14 14:40:00,
2013-10-14 09:45:00,61.4,56.5,29.93,ESE,115,4.0,-999.0,84,0.00,,,0.00,WeatherSnoop3.0,2013-10-14 14:45:00,
2013-10-14 09:50:00,61.6,56.4,29.92,SSE,158,9.0,-999.0,83,0.00,,,0.00,WeatherSnoop3.0,2013-10-14 14:50:00,
2013-10-14 09:55:00,61.8,56.6,29.92,ESE,121,8.0,-999.0,83,0.00,,,0.00,WeatherSnoop3.0,2013-10-14 14:55:00,
2013-10-14 10:00:00,61.9,56.3,29.92,SE,138,5.0,-999.0,82,0.00,,,0.00,WeatherSnoop3.0,2013-10-14 15:00:00,
2013-10-14 10:05:00,62.0,56.4,29.92,SE,142,6.0,-999.0,82,0.00,,,0.00,WeatherSnoop3.0,2013-10-14 15:05:00,
2013-10-14 10:10:00,62.0,56.4,29.92,SSE,153,8.0,-999.0,82,0.00,,,0.00,WeatherSnoop3.0,2013-10-14 15:10:00,
2013-10-14 10:15:00,62.1,56.5,29.92,SE,138,4.0,-999.0,82,0.00,,,0.00,WeatherSnoop3.0,2013-10-14 15:15:00,
2013-10-14 10:20:00,62.4,56.8,29.91,SE,132,7.0,-999.0,82,0.00,,,0.00,WeatherSnoop3.0,2013-10-14 15:20:00,
2013-10-14 10:25:00,62.4,56.8,29.91,ESE,119,4.0,-999.0,82,0.00,,,0.00,WeatherSnoop3.0,2013-10-14 15:25:00,
2013-10-14 10:30:00,62.5,56.9,29.92,SE,131,5.0,-999.0,82,0.00,,,0.00,WeatherSnoop3.0,2013-10-14 15:30:00,
2013-10-14 10:35:00,62.5,56.9,29.91,SE,141,10.0,-999.0,82,0.00,,,0.00,WeatherSnoop3.0,2013-10-14 15:35:00,
2013-10-14 10:41:00,62.4,56.8,29.91,ESE,107,5.0,-999.0,82,0.00,,,0.00,WeatherSnoop3.0,2013-10-14 15:41:00,
2013-10-14 10:50:00,62.2,57.3,29.91,South,177,4.0,-999.0,84,0.00,,,0.00,WeatherSnoop3.0,2013-10-14 15:50:00,
2013-10-14 10:55:00,61.9,57.3,29.91,SE,139,4.0,-999.0,85,0.00,,,0.00,WeatherSnoop3.0,2013-10-14 15:55:00,
2013-10-14 11:00:00,61.9,57.3,29.90,South,173,7.0,-999.0,85,0.00,,,0.00,WeatherSnoop3.0,2013-10-14 16:00:00,
2013-10-14 11:05:00,61.7,57.1,29.90,SSE,168,9.0,-999.0,85,0.00,,,0.00,WeatherSnoop3.0,2013-10-14 16:05:00,
2013-10-14 11:10:00,61.7,57.5,29.89,ESE,104,5.0,-999.0,86,0.00,,,0.00,WeatherSnoop3.0,2013-10-14 16:10:00,
2013-10-14 11:15:00,61.7,57.5,29.89,ESE,108,5.0,-999.0,86,0.00,,,0.00,WeatherSnoop3.0,2013-10-14 16:15:00,
2013-10-14 11:20:00,61.6,57.4,29.89,SSE,155,7.0,-999.0,86,0.00,,,0.00,WeatherSnoop3.0,2013-10-14 16:20:00,
2013-10-14 11:25:00,61.5,57.3,29.89,SSE,164,6.0,-999.0,86,0.00,,,0.00,WeatherSnoop3.0,2013-10-14 16:25:00,
2013-10-14 11:30:00,61.5,57.6,29.89,SE,142,8.0,-999.0,87,0.00,,,0.00,WeatherSnoop3.0,2013-10-14 16:30:00,
2013-10-14 11:35:00,61.4,57.5,29.89,East,90,3.0,-999.0,87,0.00,,,0.00,WeatherSnoop3.0,2013-10-14 16:35:00,
2013-10-14 11:40:00,61.3,57.4,29.89,SSE,148,8.0,-999.0,87,0.00,,,0.00,WeatherSnoop3.0,2013-10-14 16:40:00,
2013-10-14 11:45:00,61.2,57.6,29.88,ESE,115,7.0,-999.0,88,0.00,,,0.00,WeatherSnoop3.0,2013-10-14 16:45:00,
2013-10-14 11:50:00,61.3,57.7,29.88,South,180,9.0,-999.0,88,0.00,,,0.00,WeatherSnoop3.0,2013-10-14 16:50:00,
2013-10-14 11:55:00,61.2,57.6,29.88,SE,142,4.0,-999.0,88,0.00,,,0.00,WeatherSnoop3.0,2013-10-14 16:55:00,
2013-10-14 12:00:00,61.1,57.5,29.89,SSE,150,10.0,-999.0,88,0.00,,,0.00,WeatherSnoop3.0,2013-10-14 17:00:00,
2013-10-14 12:05:00,60.9,57.6,29.88,ESE,120,6.0,-999.0,89,0.00,,,0.00,WeatherSnoop3.0,2013-10-14 17:05:00,
2013-10-14 12:10:00,60.9,57.6,29.88,SSW,200,6.0,-999.0,89,0.00,,,0.00,WeatherSnoop3.0,2013-10-14 17:10:00,
2013-10-14 12:15:00,60.8,57.5,29.87,SE,126,7.0,-999.0,89,0.00,,,0.00,WeatherSnoop3.0,2013-10-14 17:15:00,
2013-10-14 12:20:00,60.9,57.6,29.87,SE,139,6.0,-999.0,89,0.00,,,0.00,WeatherSnoop3.0,2013-10-14 17:20:00,
2013-10-14 12:25:00,60.9,57.6,29.86,SE,142,6.0,-999.0,89,0.00,,,0.00,WeatherSnoop3.0,2013-10-14 17:25:00,
2013-10-14 12:30:00,61.1,57.8,29.86,ESE,120,5.0,-999.0,89,0.00,,,0.00,WeatherSnoop3.0,2013-10-14 17:30:00,
2013-10-14 12:35:00,61.2,57.9,29.86,South,181,5.0,-999.0,89,0.00,,,0.00,WeatherSnoop3.0,2013-10-14 17:35:00,
2013-10-14 12:40:00,61.2,57.9,29.86,SE,129,5.0,-999.0,89,0.00,,,0.00,WeatherSnoop3.0,2013-10-14 17:40:00,
2013-10-14 12:45:00,61.0,57.7,29.86,East,92,5.0,-999.0,89,0.00,,,0.00,WeatherSnoop3.0,2013-10-14 17:45:00,
2013-10-14 12:50:00,61.0,58.0,29.85,SE,134,6.0,-999.0,90,0.00,,,0.00,WeatherSnoop3.0,2013-10-14 17:50:00,
2013-10-14 12:55:00,61.0,58.0,29.85,South,187,6.0,-999.0,90,0.00,,,0.00,WeatherSnoop3.0,2013-10-14 17:55:00,
2013-10-14 13:00:00,61.0,58.0,29.85,SSE,148,15.0,-999.0,90,0.00,,,0.00,WeatherSnoop3.0,2013-10-14 18:00:00,
2013-10-14 13:05:00,60.8,58.2,29.85,SE,143,10.0,-999.0,91,0.00,,,0.00,WeatherSnoop3.0,2013-10-14 18:05:00,
2013-10-14 13:10:00,60.6,58.3,29.84,SE,132,8.0,-999.0,92,0.00,,,0.00,WeatherSnoop3.0,2013-10-14 18:10:00,
2013-10-14 13:15:00,60.5,58.2,29.84,SSE,150,8.0,-999.0,92,0.00,,,0.00,WeatherSnoop3.0,2013-10-14 18:15:00,
2013-10-14 13:20:00,60.5,58.2,29.83,SE,126,5.0,-999.0,92,0.00,,,0.00,WeatherSnoop3.0,2013-10-14 18:20:00,
2013-10-14 13:25:00,60.4,58.4,29.83,SE,126,5.0,-999.0,93,0.00,,,0.00,WeatherSnoop3.0,2013-10-14 18:25:00,
2013-10-14 13:30:00,60.3,58.3,29.83,SE,134,5.0,-999.0,93,0.00,,,0.00,WeatherSnoop3.0,2013-10-14 18:30:00,
2013-10-14 13:35:00,60.2,58.2,29.82,SSE,167,4.0,-999.0,93,0.00,,,0.00,WeatherSnoop3.0,2013-10-14 18:35:00,
2013-10-14 13:40:00,60.1,58.4,29.82,SSE,165,13.0,-999.0,94,0.00,,,0.00,WeatherSnoop3.0,2013-10-14 18:40:00,
2013-10-14 13:45:00,60.0,58.3,29.82,SSE,150,4.0,-999.0,94,0.00,,,0.00,WeatherSnoop3.0,2013-10-14 18:45:00,
2013-10-14 13:50:00,60.0,58.3,29.81,SSE,153,7.0,-999.0,94,0.00,,,0.00,WeatherSnoop3.0,2013-10-14 18:50:00,
2013-10-14 13:55:00,60.1,58.4,29.81,SSE,152,4.0,-999.0,94,0.00,,,0.00,WeatherSnoop3.0,2013-10-14 18:55:00,
2013-10-14 14:00:00,60.3,58.9,29.81,SE,139,3.0,-999.0,95,0.00,,,0.00,WeatherSnoop3.0,2013-10-14 19:00:00,
2013-10-14 14:05:00,60.5,58.8,29.81,SSE,160,6.0,-999.0,94,0.00,,,0.00,WeatherSnoop3.0,2013-10-14 19:05:00,
2013-10-14 14:10:00,60.7,59.0,29.80,ESE,107,7.0,-999.0,94,0.00,,,0.00,WeatherSnoop3.0,2013-10-14 19:10:00,
2013-10-14 14:15:00,60.8,59.1,29.80,SE,145,5.0,-999.0,94,0.00,,,0.00,WeatherSnoop3.0,2013-10-14 19:15:00,
2013-10-14 14:20:00,60.9,59.2,29.80,SE,139,12.0,-999.0,94,0.00,,,0.00,WeatherSnoop3.0,2013-10-14 19:20:00,
2013-10-14 14:25:00,61.0,59.3,29.80,South,181,10.0,-999.0,94,0.00,,,0.00,WeatherSnoop3.0,2013-10-14 19:25:00,
2013-10-14 14:30:00,61.0,59.0,29.79,SE,145,7.0,-999.0,93,0.00,,,0.00,WeatherSnoop3.0,2013-10-14 19:30:00,
2013-10-14 14:35:00,61.0,59.0,29.79,SSE,159,6.0,-999.0,93,0.00,,,0.00,WeatherSnoop3.0,2013-10-14 19:35:00,
2013-10-14 14:40:00,61.0,59.0,29.79,SSE,168,6.0,-999.0,93,0.00,,,0.00,WeatherSnoop3.0,2013-10-14 19:40:00,
2013-10-14 14:45:00,61.1,59.4,29.78,East,79,6.0,-999.0,94,0.00,,,0.00,WeatherSnoop3.0,2013-10-14 19:45:00,
2013-10-14 14:50:00,61.1,59.4,29.78,SE,146,5.0,-999.0,94,0.00,,,0.00,WeatherSnoop3.0,2013-10-14 19:50:00,
2013-10-14 14:55:00,61.3,59.6,29.78,SE,140,3.0,-999.0,94,0.00,,,0.00,WeatherSnoop3.0,2013-10-14 19:55:00,
2013-10-14 15:00:00,61.4,59.4,29.77,ESE,117,7.0,-999.0,93,0.00,,,0.00,WeatherSnoop3.0,2013-10-14 20:00:00,
2013-10-14 15:05:00,61.6,59.9,29.77,SE,124,4.0,-999.0,94,0.00,,,0.00,WeatherSnoop3.0,2013-10-14 20:05:00,
2013-10-14 15:10:00,61.6,59.9,29.77,SW,219,4.0,-999.0,94,0.00,,,0.00,WeatherSnoop3.0,2013-10-14 20:10:00,
2013-10-14 15:15:00,61.6,59.9,29.77,SE,138,11.0,-999.0,94,0.00,,,0.00,WeatherSnoop3.0,2013-10-14 20:15:00,
2013-10-14 15:20:00,61.7,60.3,29.76,SE,145,7.0,-999.0,95,0.00,,,0.00,WeatherSnoop3.0,2013-10-14 20:20:00,
2013-10-14 15:25:00,61.7,60.3,29.76,East,96,6.0,-999.0,95,0.00,,,0.00,WeatherSnoop3.0,2013-10-14 20:25:00,
2013-10-14 15:30:00,62.0,60.5,29.75,South,171,5.0,-999.0,95,0.00,,,0.00,WeatherSnoop3.0,2013-10-14 20:30:00,
2013-10-14 15:35:00,61.9,60.2,29.76,SSE,158,3.0,-999.0,94,0.00,,,0.00,WeatherSnoop3.0,2013-10-14 20:35:00,
2013-10-14 15:40:00,61.8,60.4,29.76,SSE,156,10.0,-999.0,95,0.00,,,0.00,WeatherSnoop3.0,2013-10-14 20:40:00,
2013-10-14 15:45:00,61.8,60.4,29.75,SE,129,7.0,-999.0,95,0.00,,,0.00,WeatherSnoop3.0,2013-10-14 20:45:00,
2013-10-14 15:50:00,61.8,60.1,29.75,ESE,120,9.0,-999.0,94,0.00,,,0.00,WeatherSnoop3.0,2013-10-14 20:50:00,
2013-10-14 15:55:00,61.8,60.4,29.75,SSE,148,5.0,-999.0,95,0.00,,,0.00,WeatherSnoop3.0,2013-10-14 20:55:00,
2013-10-14 16:00:00,61.8,60.4,29.75,SE,138,7.0,-999.0,95,0.00,,,0.00,WeatherSnoop3.0,2013-10-14 21:00:00,
2013-10-14 16:05:00,61.8,60.4,29.75,ESE,116,3.0,-999.0,95,0.00,,,0.00,WeatherSnoop3.0,2013-10-14 21:05:00,
2013-10-14 16:10:00,61.8,60.4,29.74,SE,130,6.0,-999.0,95,0.00,,,0.00,WeatherSnoop3.0,2013-10-14 21:10:00,
2013-10-14 16:15:00,61.8,60.4,29.74,SSE,152,11.0,-999.0,95,0.00,,,0.00,WeatherSnoop3.0,2013-10-14 21:15:00,
2013-10-14 16:20:00,61.8,60.4,29.74,SE,146,8.0,-999.0,95,0.00,,,0.00,WeatherSnoop3.0,2013-10-14 21:20:00,
2013-10-14 16:25:00,61.8,60.4,29.73,ESE,122,4.0,-999.0,95,0.00,,,0.00,WeatherSnoop3.0,2013-10-14 21:25:00,
2013-10-14 16:30:00,61.7,60.3,29.73,SSE,148,8.0,-999.0,95,0.00,,,0.00,WeatherSnoop3.0,2013-10-14 21:30:00,
2013-10-14 16:35:00,61.7,60.3,29.72,South,172,6.0,-999.0,95,0.00,,,0.00,WeatherSnoop3.0,2013-10-14 21:35:00,
2013-10-14 16:40:00,61.8,60.4,29.72,ESE,113,11.0,-999.0,95,0.00,,,0.00,WeatherSnoop3.0,2013-10-14 21:40:00,
2013-10-14 16:45:00,61.7,60.3,29.72,SSE,160,10.0,-999.0,95,0.00,,,0.00,WeatherSnoop3.0,2013-10-14 21:45:00,
2013-10-14 16:50:00,61.7,60.3,29.71,ESE,113,5.0,-999.0,95,0.00,,,0.00,WeatherSnoop3.0,2013-10-14 21:50:00,
2013-10-14 16:55:00,61.7,60.3,29.72,SSE,168,6.0,-999.0,95,0.00,,,0.00,WeatherSnoop3.0,2013-10-14 21:55:00,
2013-10-14 17:00:00,61.6,60.2,29.72,SSW,194,4.0,-999.0,95,0.00,,,0.00,WeatherSnoop3.0,2013-10-14 22:00:00,
2013-10-14 17:05:00,61.6,60.2,29.72,SE,126,8.0,-999.0,95,0.00,,,0.00,WeatherSnoop3.0,2013-10-14 22:05:00,
2013-10-14 17:10:00,61.6,60.2,29.72,SE,135,8.0,-999.0,95,0.00,,,0.00,WeatherSnoop3.0,2013-10-14 22:10:00,
2013-10-14 17:15:00,61.6,60.2,29.72,East,88,9.0,-999.0,95,0.00,,,0.00,WeatherSnoop3.0,2013-10-14 22:15:00,
2013-10-14 17:20:00,61.6,60.2,29.71,SSE,155,5.0,-999.0,95,0.00,,,0.00,WeatherSnoop3.0,2013-10-14 22:20:00,
2013-10-14 17:25:00,61.6,60.2,29.71,SE,129,10.0,-999.0,95,0.00,,,0.00,WeatherSnoop3.0,2013-10-14 22:25:00,
2013-10-14 17:30:00,61.6,60.2,29.71,SE,143,6.0,-999.0,95,0.00,,,0.00,WeatherSnoop3.0,2013-10-14 22:30:00,
2013-10-14 17:35:00,61.6,60.2,29.71,SE,146,6.0,-999.0,95,0.00,,,0.00,WeatherSnoop3.0,2013-10-14 22:35:00,
2013-10-14 17:40:00,61.6,60.2,29.71,SE,146,3.0,-999.0,95,0.00,,,0.00,WeatherSnoop3.0,2013-10-14 22:40:00,
2013-10-14 17:45:00,61.6,60.2,29.71,SSE,154,7.0,-999.0,95,0.00,,,0.00,WeatherSnoop3.0,2013-10-14 22:45:00,
2013-10-14 17:50:00,61.7,60.3,29.71,ESE,123,7.0,-999.0,95,0.00,,,0.00,WeatherSnoop3.0,2013-10-14 22:50:00,
2013-10-14 17:55:00,61.7,60.3,29.71,SSW,205,8.0,-999.0,95,0.00,,,0.00,WeatherSnoop3.0,2013-10-14 22:55:00,
2013-10-14 18:00:00,61.8,60.6,29.71,South,186,13.0,-999.0,96,0.00,,,0.00,WeatherSnoop3.0,2013-10-14 23:00:00,
2013-10-14 18:05:00,61.8,60.6,29.71,SSW,196,4.0,-999.0,96,0.00,,,0.00,WeatherSnoop3.0,2013-10-14 23:05:00,
2013-10-14 18:10:00,61.8,60.6,29.71,SE,132,7.0,-999.0,96,0.00,,,0.00,WeatherSnoop3.0,2013-10-14 23:10:00,
2013-10-14 18:15:00,61.8,60.6,29.71,SE,135,6.0,-999.0,96,0.00,,,0.00,WeatherSnoop3.0,2013-10-14 23:15:00,
2013-10-14 18:20:00,61.8,60.6,29.71,ESE,122,7.0,-999.0,96,0.00,,,0.00,WeatherSnoop3.0,2013-10-14 23:20:00,
2013-10-14 18:25:00,61.8,60.6,29.71,SSE,154,7.0,-999.0,96,0.00,,,0.00,WeatherSnoop3.0,2013-10-14 23:25:00,
2013-10-14 18:30:00,61.8,60.6,29.71,SE,144,6.0,-999.0,96,0.00,,,0.00,WeatherSnoop3.0,2013-10-14 23:30:00,
2013-10-14 18:35:00,61.8,60.6,29.72,ESE,103,4.0,-999.0,96,0.00,,,0.00,WeatherSnoop3.0,2013-10-14 23:35:00,
2013-10-14 18:40:00,61.9,60.7,29.72,South,181,3.0,-999.0,96,0.00,,,0.00,WeatherSnoop3.0,2013-10-14 23:40:00,
2013-10-14 18:45:00,62.0,60.8,29.72,ESE,115,3.0,-999.0,96,0.00,,,0.00,WeatherSnoop3.0,2013-10-14 23:45:00,
2013-10-14 18:50:00,62.0,61.1,29.71,SSE,149,4.0,-999.0,97,0.00,,,0.00,WeatherSnoop3.0,2013-10-14 23:50:00,
2013-10-14 18:55:00,62.1,61.2,29.72,ESE,117,8.0,-999.0,97,0.00,,,0.00,WeatherSnoop3.0,2013-10-14 23:55:00,
2013-10-14 19:00:00,62.1,61.2,29.72,SSE,159,6.0,-999.0,97,0.00,,,0.00,WeatherSnoop3.0,2013-10-15 00:00:00,
2013-10-14 19:05:00,62.2,61.3,29.71,SSE,153,10.0,-999.0,97,0.00,,,0.00,WeatherSnoop3.0,2013-10-15 00:05:00,
2013-10-14 19:10:00,62.2,61.3,29.72,SSW,196,3.0,-999.0,97,0.00,,,0.00,WeatherSnoop3.0,2013-10-15 00:10:00,
2013-10-14 19:15:00,62.3,61.4,29.71,SSE,152,6.0,-999.0,97,0.00,,,0.00,WeatherSnoop3.0,2013-10-15 00:15:00,
2013-10-14 19:20:00,62.3,61.4,29.72,SE,138,10.0,-999.0,97,0.00,,,0.00,WeatherSnoop3.0,2013-10-15 00:20:00,
2013-10-14 19:25:00,62.4,61.5,29.72,SSE,166,4.0,-999.0,97,0.00,,,0.00,WeatherSnoop3.0,2013-10-15 00:25:00,
2013-10-14 19:30:00,62.4,61.5,29.72,SSE,158,4.0,-999.0,97,0.00,,,0.00,WeatherSnoop3.0,2013-10-15 00:30:00,
2013-10-14 19:35:00,62.5,61.6,29.72,SSW,200,3.0,-999.0,97,0.00,,,0.00,WeatherSnoop3.0,2013-10-15 00:35:00,
2013-10-14 19:40:00,62.6,61.7,29.73,ESE,113,5.0,-999.0,97,0.00,,,0.00,WeatherSnoop3.0,2013-10-15 00:40:00,
2013-10-14 19:45:00,62.7,61.8,29.72,SSE,158,2.0,-999.0,97,0.00,,,0.00,WeatherSnoop3.0,2013-10-15 00:45:00,
2013-10-14 19:50:00,62.8,61.9,29.72,South,188,5.0,-999.0,97,0.00,,,0.00,WeatherSnoop3.0,2013-10-15 00:50:00,
2013-10-14 19:55:00,62.8,61.9,29.72,SE,139,5.0,-999.0,97,0.00,,,0.00,WeatherSnoop3.0,2013-10-15 00:55:00,
2013-10-14 20:00:00,62.9,62.0,29.72,SSW,198,3.0,-999.0,97,0.00,,,0.00,WeatherSnoop3.0,2013-10-15 01:00:00,
2013-10-14 20:05:00,63.0,62.1,29.72,SE,145,7.0,-999.0,97,0.00,,,0.00,WeatherSnoop3.0,2013-10-15 01:05:00,
2013-10-14 20:10:00,63.0,62.1,29.72,SSE,155,8.0,-999.0,97,0.00,,,0.00,WeatherSnoop3.0,2013-10-15 01:10:00,
2013-10-14 20:15:00,63.0,62.1,29.72,SE,141,7.0,-999.0,97,0.00,,,0.00,WeatherSnoop3.0,2013-10-15 01:15:00,
2013-10-14 20:20:00,63.1,62.2,29.72,ESE,121,4.0,-999.0,97,0.00,,,0.00,WeatherSnoop3.0,2013-10-15 01:20:00,
2013-10-14 20:25:00,63.2,62.3,29.72,ESE,115,5.0,-999.0,97,0.00,,,0.00,WeatherSnoop3.0,2013-10-15 01:25:00,
2013-10-14 20:30:00,63.2,62.3,29.72,SSE,160,6.0,-999.0,97,0.00,,,0.00,WeatherSnoop3.0,2013-10-15 01:30:00,
2013-10-14 20:35:00,63.3,62.4,29.72,SE,136,5.0,-999.0,97,0.00,,,0.00,WeatherSnoop3.0,2013-10-15 01:35:00,
2013-10-14 20:40:00,63.3,62.4,29.71,SE,131,4.0,-999.0,97,0.00,,,0.00,WeatherSnoop3.0,2013-10-15 01:40:00,
2013-10-14 20:45:00,63.3,62.4,29.71,SE,134,6.0,-999.0,97,0.00,,,0.00,WeatherSnoop3.0,2013-10-15 01:45:00,
2013-10-14 20:50:00,63.4,62.8,29.71,SE,139,7.0,-999.0,98,0.00,,,0.00,WeatherSnoop3.0,2013-10-15 01:50:00,
2013-10-14 20:55:00,63.4,62.8,29.71,SE,134,4.0,-999.0,98,0.00,,,0.00,WeatherSnoop3.0,2013-10-15 01:55:00,
2013-10-14 21:00:00,63.5,62.9,29.72,SSW,201,4.0,-999.0,98,0.00,,,0.00,WeatherSnoop3.0,2013-10-15 02:00:00,
2013-10-14 21:05:00,63.6,63.0,29.72,WSW,238,8.0,-999.0,98,0.00,,,0.00,WeatherSnoop3.0,2013-10-15 02:05:00,
2013-10-14 21:10:00,63.7,63.1,29.75,WNW,283,1.0,-999.0,98,0.00,,,0.00,WeatherSnoop3.0,2013-10-15 02:10:00,
2013-10-14 21:15:00,63.1,62.2,29.77,NE,46,6.0,-999.0,97,0.00,,,0.00,WeatherSnoop3.0,2013-10-15 02:15:00,
2013-10-14 21:20:00,60.0,58.0,29.77,ENE,57,2.0,-999.0,93,0.00,,,0.01,WeatherSnoop3.0,2013-10-15 02:20:00,
2013-10-14 21:25:00,58.6,56.9,29.79,NE,34,3.0,-999.0,94,0.75,,,0.05,WeatherSnoop3.0,2013-10-15 02:25:00,
2013-10-14 21:30:00,57.7,56.3,29.79,North,8,0.0,-999.0,95,0.63,,,0.14,WeatherSnoop3.0,2013-10-15 02:30:00,
2013-10-14 21:35:00,57.4,56.0,29.80,NNE,29,0.0,-999.0,95,0.79,,,0.18,WeatherSnoop3.0,2013-10-15 02:35:00,
2013-10-14 21:40:00,57.1,56.0,29.79,NNE,13,1.0,-999.0,96,0.72,,,0.26,WeatherSnoop3.0,2013-10-15 02:40:00,
2013-10-14 21:45:00,56.9,55.8,29.78,North,11,1.0,-999.0,96,0.74,,,0.32,WeatherSnoop3.0,2013-10-15 02:45:00,
2013-10-14 21:50:00,56.7,55.6,29.79,NNW,342,0.0,-999.0,96,0.17,,,0.35,WeatherSnoop3.0,2013-10-15 02:50:00,
2013-10-14 21:55:00,56.6,55.5,29.78,NNW,348,1.0,-999.0,96,0.44,,,0.38,WeatherSnoop3.0,2013-10-15 02:55:00,
2013-10-14 22:00:00,56.5,55.7,29.78,NE,44,2.0,-999.0,97,0.29,,,0.41,WeatherSnoop3.0,2013-10-15 03:00:00,
2013-10-14 22:06:00,56.5,55.7,29.79,NNE,20,0.0,-999.0,97,0.12,,,0.42,WeatherSnoop3.0,2013-10-15 03:06:00,
2013-10-14 22:15:00,56.4,55.6,29.80,NNE,33,0.0,-999.0,97,0.04,,,0.42,WeatherSnoop3.0,2013-10-15 03:15:00,
2013-10-14 22:20:00,56.4,55.6,29.80,ENE,75,0.0,-999.0,97,0.00,,,0.43,WeatherSnoop3.0,2013-10-15 03:20:00,
2013-10-14 22:25:00,56.5,55.7,29.79,ENE,75,0.0,-999.0,97,0.00,,,0.43,WeatherSnoop3.0,2013-10-15 03:25:00,
2013-10-14 22:30:00,56.5,55.7,29.79,ENE,75,0.0,-999.0,97,0.00,,,0.43,WeatherSnoop3.0,2013-10-15 03:30:00,
2013-10-14 22:35:00,56.5,55.7,29.80,SE,146,0.0,-999.0,97,0.04,,,0.44,WeatherSnoop3.0,2013-10-15 03:35:00,
2013-10-14 22:40:00,56.6,55.8,29.80,SE,146,1.0,-999.0,97,0.04,,,0.44,WeatherSnoop3.0,2013-10-15 03:40:00,
2013-10-14 22:45:00,56.6,55.8,29.80,SE,145,0.0,-999.0,97,0.04,,,0.44,WeatherSnoop3.0,2013-10-15 03:45:00,
2013-10-14 22:50:00,56.6,55.8,29.80,SE,145,0.0,-999.0,97,0.04,,,0.44,WeatherSnoop3.0,2013-10-15 03:50:00,
2013-10-14 22:55:00,56.6,55.8,29.80,SSW,196,0.0,-999.0,97,0.00,,,0.44,WeatherSnoop3.0,2013-10-15 03:55:00,
2013-10-14 23:00:00,56.6,55.8,29.80,SSW,196,0.0,-999.0,97,0.00,,,0.44,WeatherSnoop3.0,2013-10-15 04:00:00,
2013-10-14 23:05:00,56.6,56.0,29.81,SSW,205,0.0,-999.0,98,0.00,,,0.44,WeatherSnoop3.0,2013-10-15 04:05:00,
2013-10-14 23:10:00,56.7,56.1,29.80,SW,223,0.0,-999.0,98,0.00,,,0.44,WeatherSnoop3.0,2013-10-15 04:10:00,
2013-10-14 23:15:00,56.8,56.2,29.81,SW,222,0.0,-999.0,98,0.00,,,0.44,WeatherSnoop3.0,2013-10-15 04:15:00,
2013-10-14 23:20:00,56.8,56.2,29.80,SE,132,0.0,-999.0,98,0.00,,,0.44,WeatherSnoop3.0,2013-10-15 04:20:00,
2013-10-14 23:25:00,56.8,56.2,29.81,SE,132,0.0,-999.0,98,0.00,,,0.44,WeatherSnoop3.0,2013-10-15 04:25:00,
2013-10-14 23:30:00,56.8,56.2,29.81,SE,132,0.0,-999.0,98,0.00,,,0.44,WeatherSnoop3.0,2013-10-15 04:30:00,
2013-10-14 23:35:00,56.8,56.2,29.82,SE,141,0.0,-999.0,98,0.00,,,0.44,WeatherSnoop3.0,2013-10-15 04:35:00,
2013-10-14 23:40:00,56.8,56.2,29.81,SE,141,0.0,-999.0,98,0.00,,,0.44,WeatherSnoop3.0,2013-10-15 04:40:00,
2013-10-14 23:45:00,56.7,56.1,29.81,SE,141,0.0,-999.0,98,0.00,,,0.44,WeatherSnoop3.0,2013-10-15 04:45:00,
2013-10-14 23:50:00,56.6,55.8,29.81,SE,141,0.0,-999.0,97,0.00,,,0.44,WeatherSnoop3.0,2013-10-15 04:50:00,
2013-10-14 23:55:00,56.3,55.5,29.81,SE,141,0.0,-999.0,97,0.00,,,0.44,WeatherSnoop3.0,2013-10-15 04:55:00,